Location: Shepherdstown, WV
(39.4326°N, 77.8042°W)
Time: 10:36:29
(UTC-04:00)

Tiangong - Pass Details

Date: 23 June 2021
Orbit: 374 x 386 km, 41.5° (Epoch: 25 July)

Event Time Altitude Azimuth Distance (km) Brightness Sun altitude
Exits shadow 05:02:22 - 273° (W) 1,841 4.1 -7.5°
Reaches altitude 10° 05:03:29 10° 276° (W) 1,389 3.5 -7.4°
Maximum altitude 05:06:35 57° 357° (N) 452 1.6 -6.9°
Drops below altitude 10° 05:09:41 10° 77° (ENE) 1,398 5.1 -6.4°
Sets 05:11:47 0° 82° (E) 2,248 6.2 -6.1°
